Time,TemperatureF,DewpointF,PressureIn,WindDirection,WindDirectionDegrees,WindSpeedMPH,WindSpeedGustMPH,Humidity,HourlyPrecipIn,Conditions,Clouds,dailyrainin,SoftwareType,DateUTC
2013-09-25 00:03:00,66.6,62.6,29.81,ESE,111,3.0,4.0,87,0.00,,SKC,0.00,VWS V12.07,2013-09-25 05:03:00,
2013-09-25 00:07:00,66.7,62.7,29.81,East,101,2.0,6.0,87,0.00,,SKC,0.00,VWS V12.07,2013-09-25 05:07:00,
2013-09-25 00:13:00,66.6,62.6,29.81,ESE,113,3.0,6.0,87,0.00,,SKC,0.00,VWS V12.07,2013-09-25 05:13:00,
2013-09-25 00:19:00,66.6,62.6,29.81,East,79,3.0,6.0,87,0.00,,SKC,0.00,VWS V12.07,2013-09-25 05:19:00,
2013-09-25 00:25:00,66.6,62.6,29.81,NE,53,1.0,6.0,87,0.00,,SKC,0.00,VWS V12.07,2013-09-25 05:25:00,
2013-09-25 00:31:00,66.4,62.7,29.81,East,86,1.0,1.0,88,0.00,,SKC,0.00,VWS V12.07,2013-09-25 05:31:00,
2013-09-25 00:37:00,66.4,62.7,29.80,NNE,25,0.0,2.0,88,0.00,,SKC,0.00,VWS V12.07,2013-09-25 05:37:00,
2013-09-25 00:43:00,66.3,62.6,29.81,North,8,0.0,2.0,88,0.00,,SKC,0.00,VWS V12.07,2013-09-25 05:43:00,
2013-09-25 00:49:00,66.2,62.5,29.81,North,355,0.0,2.0,88,0.00,,SKC,0.00,VWS V12.07,2013-09-25 05:49:00,
2013-09-25 00:55:00,66.0,62.3,29.81,North,356,0.0,2.0,88,0.00,,SKC,0.00,VWS V12.07,2013-09-25 05:55:00,
2013-09-25 01:01:00,65.9,62.2,29.80,North,1,0.0,2.0,88,0.00,,SKC,0.00,VWS V12.07,2013-09-25 06:01:00,
2013-09-25 01:07:00,65.7,62.4,29.81,North,360,0.0,2.0,89,0.00,,SKC,0.00,VWS V12.07,2013-09-25 06:07:00,
2013-09-25 01:13:00,65.5,62.2,29.80,North,359,0.0,2.0,89,0.00,,SKC,0.00,VWS V12.07,2013-09-25 06:13:00,
2013-09-25 01:21:00,65.2,61.9,29.80,NNE,20,0.0,2.0,89,0.00,,SKC,0.00,VWS V12.07,2013-09-25 06:21:00,
2013-09-25 01:27:00,65.0,62.0,29.80,ENE,74,2.0,3.0,90,0.00,,SKC,0.00,VWS V12.07,2013-09-25 06:27:00,
2013-09-25 01:33:00,64.8,61.8,29.80,ENE,65,0.0,4.0,90,0.00,,SKC,0.00,VWS V12.07,2013-09-25 06:33:00,
2013-09-25 01:39:00,64.7,61.7,29.81,ENE,64,2.0,4.0,90,0.00,,SKC,0.00,VWS V12.07,2013-09-25 06:39:00,
2013-09-25 01:45:00,64.7,61.7,29.81,North,1,1.0,4.0,90,0.00,,SKC,0.00,VWS V12.07,2013-09-25 06:45:00,
2013-09-25 01:50:00,64.5,61.5,29.81,ENE,71,3.0,4.0,90,0.00,,SKC,0.00,VWS V12.07,2013-09-25 06:50:00,
2013-09-25 01:55:00,64.4,61.4,29.81,NNW,344,1.0,4.0,90,0.00,,SKC,0.00,VWS V12.07,2013-09-25 06:55:00,
2013-09-25 02:00:00,64.4,61.7,29.81,ENE,74,3.0,6.0,91,0.00,,SKC,0.00,VWS V12.07,2013-09-25 07:00:00,
2013-09-25 02:06:00,64.3,61.6,29.81,North,360,2.0,4.0,91,0.00,,SKC,0.00,VWS V12.07,2013-09-25 07:06:00,
2013-09-25 02:12:00,64.2,61.5,29.82,NE,48,1.0,4.0,91,0.00,,SKC,0.00,VWS V12.07,2013-09-25 07:12:00,
2013-09-25 02:17:00,64.2,61.2,29.81,NE,49,1.0,6.0,90,0.00,,SKC,0.00,VWS V12.07,2013-09-25 07:17:00,
2013-09-25 02:23:00,64.2,60.9,29.81,East,99,3.0,6.0,89,0.00,,SKC,0.00,VWS V12.07,2013-09-25 07:23:00,
2013-09-25 02:29:00,64.1,60.8,29.81,East,82,0.0,6.0,89,0.00,,SKC,0.00,VWS V12.07,2013-09-25 07:29:00,
2013-09-25 02:36:00,64.0,60.4,29.81,East,89,3.0,4.0,88,0.00,,SKC,0.00,VWS V12.07,2013-09-25 07:36:00,
2013-09-25 02:44:00,63.9,60.3,29.81,ESE,106,0.0,6.0,88,0.00,,SKC,0.00,VWS V12.07,2013-09-25 07:44:00,
2013-09-25 02:51:00,63.8,60.2,29.81,ENE,71,0.0,6.0,88,0.00,,SKC,0.00,VWS V12.07,2013-09-25 07:51:00,
2013-09-25 02:57:00,63.7,60.1,29.81,East,95,1.0,6.0,88,0.00,,SKC,0.00,VWS V12.07,2013-09-25 07:57:00,
2013-09-25 03:03:00,63.6,60.3,29.81,ENE,75,1.0,4.0,89,0.00,,SKC,0.00,VWS V12.07,2013-09-25 08:03:00,
2013-09-25 03:09:00,63.5,60.2,29.81,East,95,0.0,4.0,89,0.00,,SKC,0.00,VWS V12.07,2013-09-25 08:09:00,
2013-09-25 03:15:00,63.3,60.0,29.81,ENE,73,0.0,4.0,89,0.00,,SKC,0.00,VWS V12.07,2013-09-25 08:15:00,
2013-09-25 03:21:00,63.0,59.7,29.81,NE,56,0.0,4.0,89,0.00,,SKC,0.00,VWS V12.07,2013-09-25 08:21:00,
2013-09-25 03:27:00,62.7,59.7,29.81,ENE,65,0.0,4.0,90,0.00,,SKC,0.00,VWS V12.07,2013-09-25 08:27:00,
2013-09-25 03:33:00,62.4,59.4,29.81,ENE,61,0.0,0.0,90,0.00,,SKC,0.00,VWS V12.07,2013-09-25 08:33:00,
2013-09-25 03:39:00,62.0,59.0,29.81,ENE,61,0.0,0.0,90,0.00,,SKC,0.00,VWS V12.07,2013-09-25 08:39:00,
2013-09-25 03:45:00,61.7,59.0,29.81,ENE,73,0.0,1.0,91,0.00,,SKC,0.00,VWS V12.07,2013-09-25 08:45:00,
2013-09-25 03:51:00,61.3,59.0,29.81,ENE,71,0.0,1.0,92,0.00,,SKC,0.00,VWS V12.07,2013-09-25 08:51:00,
2013-09-25 03:56:00,61.3,59.0,29.82,ENE,64,0.0,1.0,92,0.00,,SKC,0.00,VWS V12.07,2013-09-25 08:56:00,
2013-09-25 04:02:00,61.1,58.8,29.82,NNE,30,0.0,0.0,92,0.00,,SKC,0.00,VWS V12.07,2013-09-25 09:02:00,
2013-09-25 04:08:00,60.9,58.9,29.82,NNE,33,0.0,0.0,93,0.00,,SKC,0.00,VWS V12.07,2013-09-25 09:08:00,
2013-09-25 04:14:00,60.7,58.7,29.82,NNE,33,0.0,0.0,93,0.00,,SKC,0.00,VWS V12.07,2013-09-25 09:14:00,
2013-09-25 04:20:00,60.6,58.6,29.82,NNE,33,0.0,0.0,93,0.00,,SKC,0.00,VWS V12.07,2013-09-25 09:20:00,
2013-09-25 04:26:00,60.3,58.3,29.83,NNE,33,0.0,0.0,93,0.00,,SKC,0.00,VWS V12.07,2013-09-25 09:26:00,
2013-09-25 04:32:00,60.3,58.6,29.83,NNE,25,0.0,0.0,94,0.00,,SKC,0.00,VWS V12.07,2013-09-25 09:32:00,
2013-09-25 04:38:00,60.2,58.5,29.83,East,86,0.0,0.0,94,0.00,,SKC,0.00,VWS V12.07,2013-09-25 09:38:00,
2013-09-25 04:43:00,60.1,58.4,29.83,ENE,77,0.0,1.0,94,0.00,,SKC,0.00,VWS V12.07,2013-09-25 09:43:00,
2013-09-25 04:49:00,60.1,58.4,29.83,ENE,60,0.0,2.0,94,0.00,,SKC,0.00,VWS V12.07,2013-09-25 09:49:00,
2013-09-25 04:55:00,60.0,58.3,29.83,NE,53,0.0,2.0,94,0.00,,SKC,0.00,VWS V12.07,2013-09-25 09:55:00,
2013-09-25 05:01:00,59.8,58.1,29.83,NE,53,0.0,2.0,94,0.00,,SKC,0.00,VWS V12.07,2013-09-25 10:01:00,
2013-09-25 05:07:00,59.7,58.3,29.83,NE,53,0.0,0.0,95,0.00,,SKC,0.00,VWS V12.07,2013-09-25 10:07:00,
2013-09-25 05:14:00,60.0,58.6,29.83,NE,54,0.0,0.0,95,0.00,,SKC,0.00,VWS V12.07,2013-09-25 10:14:00,
2013-09-25 05:19:00,60.1,58.7,29.84,NE,52,0.0,0.0,95,0.00,,SKC,0.00,VWS V12.07,2013-09-25 10:19:00,
2013-09-25 05:25:00,60.4,59.0,29.84,NE,51,0.0,0.0,95,0.00,,SKC,0.00,VWS V12.07,2013-09-25 10:25:00,
2013-09-25 05:31:00,60.7,59.3,29.84,NE,51,0.0,0.0,95,0.00,,SKC,0.00,VWS V12.07,2013-09-25 10:31:00,
2013-09-25 05:36:00,60.8,59.1,29.84,NE,51,0.0,0.0,94,0.00,,SKC,0.00,VWS V12.07,2013-09-25 10:36:00,
2013-09-25 05:42:00,60.9,59.2,29.84,NE,51,0.0,0.0,94,0.00,,SKC,0.00,VWS V12.07,2013-09-25 10:42:00,
2013-09-25 05:48:00,61.1,59.4,29.84,NE,51,0.0,0.0,94,0.00,,SKC,0.00,VWS V12.07,2013-09-25 10:48:00,
2013-09-25 05:53:00,61.1,59.4,29.84,NE,51,0.0,0.0,94,0.00,,SKC,0.00,VWS V12.07,2013-09-25 10:53:00,
2013-09-25 05:58:00,61.2,59.5,29.85,NE,51,0.0,0.0,94,0.00,,SKC,0.00,VWS V12.07,2013-09-25 10:58:00,
2013-09-25 06:04:00,61.3,59.3,29.85,NE,51,0.0,0.0,93,0.00,,SKC,0.00,VWS V12.07,2013-09-25 11:04:00,
2013-09-25 06:09:00,61.3,59.3,29.85,NE,52,0.0,0.0,93,0.00,,SKC,0.00,VWS V12.07,2013-09-25 11:09:00,
2013-09-25 06:15:00,61.4,59.4,29.85,NE,51,0.0,1.0,93,0.00,,SKC,0.00,VWS V12.07,2013-09-25 11:15:00,
2013-09-25 06:21:00,61.5,59.5,29.85,NE,52,0.0,1.0,93,0.00,,SKC,0.00,VWS V12.07,2013-09-25 11:21:00,
2013-09-25 06:27:00,61.5,59.5,29.85,NE,51,0.0,1.0,93,0.00,,SKC,0.00,VWS V12.07,2013-09-25 11:27:00,
2013-09-25 06:32:00,61.6,59.6,29.85,NE,51,0.0,0.0,93,0.00,,SKC,0.00,VWS V12.07,2013-09-25 11:32:00,
2013-09-25 06:40:00,61.6,59.6,29.86,NE,51,0.0,1.0,93,0.00,,SKC,0.00,VWS V12.07,2013-09-25 11:40:00,
2013-09-25 06:46:00,61.7,59.7,29.86,NE,51,0.0,1.0,93,0.00,,SKC,0.00,VWS V12.07,2013-09-25 11:46:00,
2013-09-25 06:52:00,61.7,59.7,29.86,NE,51,0.0,1.0,93,0.00,,SKC,0.00,VWS V12.07,2013-09-25 11:52:00,
2013-09-25 06:58:00,61.7,59.4,29.86,NE,51,0.0,2.0,92,0.00,,SKC,0.00,VWS V12.07,2013-09-25 11:58:00,
2013-09-25 07:04:00,61.7,59.4,29.86,NNE,23,0.0,2.0,92,0.00,,SKC,0.00,VWS V12.07,2013-09-25 12:04:00,
2013-09-25 07:09:00,61.8,59.5,29.87,NE,47,0.0,2.0,92,0.00,,SKC,0.00,VWS V12.07,2013-09-25 12:09:00,
2013-09-25 07:14:00,61.7,59.4,29.87,NE,56,1.0,3.0,92,0.00,,SKC,0.00,VWS V12.07,2013-09-25 12:14:00,
2013-09-25 07:19:00,61.6,59.3,29.87,NE,36,2.0,3.0,92,0.00,,SKC,0.00,VWS V12.07,2013-09-25 12:19:00,
2013-09-25 07:25:00,61.6,59.3,29.87,ENE,65,1.0,3.0,92,0.00,,SKC,0.00,VWS V12.07,2013-09-25 12:25:00,
2013-09-25 07:30:00,61.6,59.3,29.87,NNE,21,0.0,3.0,92,0.00,,SKC,0.00,VWS V12.07,2013-09-25 12:30:00,
2013-09-25 07:36:00,61.6,59.3,29.87,NNE,19,0.0,2.0,92,0.00,,SKC,0.00,VWS V12.07,2013-09-25 12:36:00,
2013-09-25 07:38:00,61.7,59.4,29.87,North,9,0.0,3.0,92,0.00,,SKC,0.00,VWS V12.07,2013-09-25 12:38:00,
2013-09-25 07:43:00,61.7,59.4,29.87,North,1,0.0,3.0,92,0.00,,SKC,0.00,VWS V12.07,2013-09-25 12:43:00,
2013-09-25 07:49:00,61.8,59.2,29.87,NNW,340,1.0,4.0,91,0.00,,SKC,0.00,VWS V12.07,2013-09-25 12:49:00,
2013-09-25 07:54:00,61.8,59.2,29.87,WNW,283,2.0,4.0,91,0.00,,SKC,0.00,VWS V12.07,2013-09-25 12:54:00,
2013-09-25 08:00:00,61.9,59.2,29.88,NNE,33,4.0,4.0,91,0.00,,SKC,0.00,VWS V12.07,2013-09-25 13:00:00,
2013-09-25 08:06:00,61.8,59.2,29.88,NNE,20,4.0,6.0,91,0.00,,SKC,0.00,VWS V12.07,2013-09-25 13:06:00,
2013-09-25 08:13:00,61.8,59.2,29.88,NNW,330,0.0,6.0,91,0.00,,SKC,0.00,VWS V12.07,2013-09-25 13:13:00,
2013-09-25 08:19:00,61.8,59.2,29.88,NNE,20,0.0,6.0,91,0.00,,SKC,0.00,VWS V12.07,2013-09-25 13:19:00,
2013-09-25 08:24:00,61.8,59.2,29.88,NW,322,1.0,6.0,91,0.00,,SKC,0.00,VWS V12.07,2013-09-25 13:24:00,
2013-09-25 08:29:00,61.8,59.2,29.88,East,97,2.0,6.0,91,0.00,,SKC,0.00,VWS V12.07,2013-09-25 13:29:00,
2013-09-25 08:35:00,61.7,59.0,29.88,NE,49,0.0,4.0,91,0.00,,SKC,0.00,VWS V12.07,2013-09-25 13:35:00,
2013-09-25 08:40:00,61.8,59.2,29.89,North,351,2.0,4.0,91,0.00,,SKC,0.00,VWS V12.07,2013-09-25 13:40:00,
2013-09-25 08:46:00,61.8,59.2,29.89,NNW,340,0.0,4.0,91,0.00,,SKC,0.00,VWS V12.07,2013-09-25 13:46:00,
2013-09-25 08:51:00,61.9,59.2,29.89,NNE,17,2.0,4.0,91,0.00,,SKC,0.00,VWS V12.07,2013-09-25 13:51:00,
2013-09-25 08:57:00,62.0,59.0,29.89,ENE,70,2.0,6.0,90,0.00,,SKC,0.00,VWS V12.07,2013-09-25 13:57:00,
2013-09-25 09:03:00,62.2,59.2,29.89,NNW,338,0.0,4.0,90,0.00,,SKC,0.00,VWS V12.07,2013-09-25 14:03:00,
2013-09-25 09:08:00,62.5,59.5,29.89,North,1,3.0,6.0,90,0.00,,SKC,0.00,VWS V12.07,2013-09-25 14:08:00,
2013-09-25 09:14:00,62.8,59.8,29.89,NNE,20,4.0,6.0,90,0.00,,SKC,0.00,VWS V12.07,2013-09-25 14:14:00,
2013-09-25 09:21:00,63.1,59.8,29.89,NE,52,2.0,6.0,89,0.00,,SKC,0.00,VWS V12.07,2013-09-25 14:21:00,
2013-09-25 09:26:00,63.3,60.0,29.89,NNW,345,0.0,6.0,89,0.00,,SKC,0.00,VWS V12.07,2013-09-25 14:26:00,
2013-09-25 09:31:00,63.5,59.9,29.89,East,81,3.0,7.0,88,0.00,,SKC,0.00,VWS V12.07,2013-09-25 14:31:00,
2013-09-25 09:38:00,63.7,60.1,29.89,NW,314,1.0,5.0,88,0.00,,SKC,0.00,VWS V12.07,2013-09-25 14:38:00,
2013-09-25 09:43:00,64.2,60.6,29.89,NNW,338,0.0,5.0,88,0.00,,SKC,0.00,VWS V12.07,2013-09-25 14:43:00,
2013-09-25 09:51:00,65.0,60.7,29.90,ENE,64,1.0,5.0,86,0.00,,SKC,0.00,VWS V12.07,2013-09-25 14:51:00,
2013-09-25 09:57:00,65.6,61.0,29.90,ENE,64,0.0,5.0,85,0.00,,SKC,0.00,VWS V12.07,2013-09-25 14:57:00,
2013-09-25 10:04:00,66.6,61.6,29.90,NNE,33,0.0,4.0,84,0.00,,SKC,0.00,VWS V12.07,2013-09-25 15:04:00,
2013-09-25 10:10:00,67.1,61.8,29.90,NE,48,2.0,4.0,83,0.00,,SKC,0.00,VWS V12.07,2013-09-25 15:10:00,
2013-09-25 10:16:00,67.4,62.1,29.90,East,94,3.0,5.0,83,0.00,,SKC,0.00,VWS V12.07,2013-09-25 15:16:00,
2013-09-25 10:21:00,67.8,62.1,29.89,ESE,121,4.0,5.0,82,0.00,,SKC,0.00,VWS V12.07,2013-09-25 15:21:00,
2013-09-25 10:27:00,68.5,62.5,29.89,NNE,32,4.0,5.0,81,0.00,,SKC,0.00,VWS V12.07,2013-09-25 15:27:00,
2013-09-25 10:32:00,68.7,62.3,29.90,ENE,67,0.0,1.0,80,0.00,,SKC,0.00,VWS V12.07,2013-09-25 15:32:00,
2013-09-25 10:39:00,69.7,63.6,29.90,SE,143,1.0,6.0,81,0.00,,SKC,0.00,VWS V12.07,2013-09-25 15:39:00,
2013-09-25 10:46:00,70.8,64.0,29.90,East,98,2.0,9.0,79,0.00,,SKC,0.00,VWS V12.07,2013-09-25 15:46:00,
2013-09-25 10:51:00,71.4,64.2,29.89,ESE,120,2.0,9.0,78,0.00,,SKC,0.00,VWS V12.07,2013-09-25 15:51:00,
2013-09-25 10:56:00,71.5,63.9,29.89,East,86,2.0,9.0,77,0.00,,SKC,0.00,VWS V12.07,2013-09-25 15:56:00,
2013-09-25 11:01:00,71.3,63.7,29.90,South,175,0.0,9.0,77,0.00,,SKC,0.00,VWS V12.07,2013-09-25 16:01:00,
2013-09-25 11:07:00,71.1,63.9,29.89,SE,143,0.0,4.0,78,0.00,,SKC,0.00,VWS V12.07,2013-09-25 16:07:00,
2013-09-25 11:14:00,72.2,65.0,29.89,SE,131,2.0,7.0,78,0.00,,SKC,0.00,VWS V12.07,2013-09-25 16:14:00,
2013-09-25 11:21:00,73.2,64.8,29.89,NNE,32,4.0,7.0,75,0.00,,SKC,0.00,VWS V12.07,2013-09-25 16:21:00,
2013-09-25 11:26:00,73.6,65.6,29.89,East,101,3.0,7.0,76,0.00,,SKC,0.00,VWS V12.07,2013-09-25 16:26:00,
2013-09-25 11:31:00,74.4,66.0,29.89,ESE,115,8.0,9.0,75,0.00,,SKC,0.00,VWS V12.07,2013-09-25 16:31:00,
2013-09-25 11:36:00,74.5,65.7,29.89,SE,138,2.0,8.0,74,0.00,,SKC,0.00,VWS V12.07,2013-09-25 16:36:00,
2013-09-25 11:41:00,73.6,65.2,29.89,SE,134,2.0,8.0,75,0.00,,SKC,0.00,VWS V12.07,2013-09-25 16:41:00,
2013-09-25 11:46:00,73.6,65.2,29.89,ENE,61,8.0,13.0,75,0.00,,SKC,0.00,VWS V12.07,2013-09-25 16:46:00,
2013-09-25 11:51:00,73.7,64.9,29.89,SE,127,3.0,13.0,74,0.00,,SKC,0.00,VWS V12.07,2013-09-25 16:51:00,
2013-09-25 11:56:00,74.0,65.6,29.89,ESE,112,3.0,13.0,75,0.00,,SKC,0.00,VWS V12.07,2013-09-25 16:56:00,
2013-09-25 12:03:00,74.3,65.9,29.88,ENE,58,5.0,6.0,75,0.00,,SKC,0.00,VWS V12.07,2013-09-25 17:03:00,
2013-09-25 12:09:00,75.1,65.9,29.88,NE,43,3.0,9.0,73,0.00,,SKC,0.00,VWS V12.07,2013-09-25 17:09:00,
2013-09-25 12:14:00,75.3,65.7,29.88,ESE,120,3.0,9.0,72,0.00,,SKC,0.00,VWS V12.07,2013-09-25 17:14:00,
2013-09-25 12:21:00,76.2,65.7,29.88,ENE,74,0.0,9.0,70,0.00,,SKC,0.00,VWS V12.07,2013-09-25 17:21:00,
2013-09-25 12:27:00,75.2,65.6,29.88,ESE,120,4.0,9.0,72,0.00,,SKC,0.00,VWS V12.07,2013-09-25 17:27:00,
2013-09-25 12:33:00,74.5,65.3,29.88,NNE,29,1.0,3.0,73,0.00,,SKC,0.00,VWS V12.07,2013-09-25 17:33:00,
2013-09-25 12:38:00,74.6,65.4,29.87,NE,56,2.0,4.0,73,0.00,,SKC,0.00,VWS V12.07,2013-09-25 17:38:00,
2013-09-25 12:44:00,74.8,65.6,29.87,ENE,74,2.0,9.0,73,0.00,,SKC,0.00,VWS V12.07,2013-09-25 17:44:00,
2013-09-25 12:51:00,75.7,65.6,29.87,ESE,103,1.0,9.0,71,0.00,,SKC,0.00,VWS V12.07,2013-09-25 17:51:00,
2013-09-25 12:56:00,75.4,64.9,29.87,NE,44,0.0,9.0,70,0.00,,SKC,0.00,VWS V12.07,2013-09-25 17:56:00,
2013-09-25 13:01:00,75.3,64.8,29.87,North,356,2.0,9.0,70,0.00,,SKC,0.00,VWS V12.07,2013-09-25 18:01:00,
2013-09-25 13:06:00,75.1,65.1,29.87,North,349,2.0,7.0,71,0.00,,SKC,0.00,VWS V12.07,2013-09-25 18:06:00,
2013-09-25 13:11:00,75.0,65.0,29.87,East,86,0.0,7.0,71,0.00,,SKC,0.00,VWS V12.07,2013-09-25 18:11:00,
2013-09-25 13:16:00,75.0,65.0,29.87,East,91,2.0,7.0,71,0.00,,SKC,0.00,VWS V12.07,2013-09-25 18:16:00,
2013-09-25 13:23:00,75.6,64.7,29.86,East,95,3.0,7.0,69,0.00,,SKC,0.00,VWS V12.07,2013-09-25 18:23:00,
2013-09-25 13:28:00,75.5,64.6,29.86,East,85,2.0,7.0,69,0.00,,SKC,0.00,VWS V12.07,2013-09-25 18:28:00,
2013-09-25 13:34:00,75.6,64.7,29.86,NE,36,3.0,7.0,69,0.00,,SKC,0.00,VWS V12.07,2013-09-25 18:34:00,
2013-09-25 13:41:00,75.8,64.9,29.86,NW,308,1.0,7.0,69,0.00,,SKC,0.00,VWS V12.07,2013-09-25 18:41:00,
2013-09-25 13:46:00,76.6,65.3,29.86,ESE,114,1.0,7.0,68,0.00,,SKC,0.00,VWS V12.07,2013-09-25 18:46:00,
2013-09-25 13:52:00,76.6,65.3,29.86,SE,126,0.0,7.0,68,0.00,,SKC,0.00,VWS V12.07,2013-09-25 18:52:00,
2013-09-25 13:58:00,77.0,65.2,29.86,ESE,105,4.0,7.0,67,0.00,,SKC,0.00,VWS V12.07,2013-09-25 18:58:00,
2013-09-25 14:04:00,77.2,65.0,29.85,SE,125,5.0,6.0,66,0.00,,SKC,0.00,VWS V12.07,2013-09-25 19:04:00,
2013-09-25 14:10:00,77.9,65.2,29.85,SSE,162,2.0,8.0,65,0.00,,SKC,0.00,VWS V12.07,2013-09-25 19:10:00,
2013-09-25 14:16:00,79.6,65.9,29.85,SE,146,1.0,8.0,63,0.00,,SKC,0.00,VWS V12.07,2013-09-25 19:16:00,
2013-09-25 14:22:00,80.5,65.8,29.85,SSE,160,0.0,8.0,61,0.00,,SKC,0.00,VWS V12.07,2013-09-25 19:22:00,
2013-09-25 14:28:00,80.6,65.4,29.85,ESE,122,9.0,9.0,60,0.00,,SKC,0.00,VWS V12.07,2013-09-25 19:28:00,
2013-09-25 14:34:00,80.9,65.2,29.85,ENE,64,4.0,8.0,59,0.00,,SKC,0.00,VWS V12.07,2013-09-25 19:34:00,
2013-09-25 14:40:00,81.2,66.0,29.85,SE,130,3.0,8.0,60,0.00,,SKC,0.00,VWS V12.07,2013-09-25 19:40:00,
2013-09-25 14:46:00,80.2,65.1,29.85,East,95,3.0,8.0,60,0.00,,SKC,0.00,VWS V12.07,2013-09-25 19:46:00,
2013-09-25 14:52:00,79.0,64.9,29.85,East,86,3.0,10.0,62,0.00,,SKC,0.00,VWS V12.07,2013-09-25 19:52:00,
2013-09-25 14:58:00,78.7,65.1,29.85,East,95,3.0,10.0,63,0.00,,SKC,0.00,VWS V12.07,2013-09-25 19:58:00,
2013-09-25 15:04:00,78.6,65.0,29.85,ESE,121,3.0,5.0,63,0.00,,SKC,0.00,VWS V12.07,2013-09-25 20:04:00,
2013-09-25 15:10:00,78.4,64.8,29.85,East,94,9.0,9.0,63,0.00,,SKC,0.00,VWS V12.07,2013-09-25 20:10:00,
2013-09-25 15:16:00,78.2,65.0,29.85,ENE,63,2.0,9.0,64,0.00,,SKC,0.00,VWS V12.07,2013-09-25 20:16:00,
2013-09-25 15:22:00,77.9,64.8,29.85,East,101,3.0,9.0,64,0.00,,SKC,0.00,VWS V12.07,2013-09-25 20:22:00,
2013-09-25 15:28:00,77.9,65.2,29.85,ESE,112,7.0,9.0,65,0.00,,SKC,0.00,VWS V12.07,2013-09-25 20:28:00,
2013-09-25 15:34:00,78.3,65.1,29.85,ESE,109,2.0,6.0,64,0.00,,SKC,0.00,VWS V12.07,2013-09-25 20:34:00,
2013-09-25 15:40:00,79.0,65.3,29.84,East,79,6.0,8.0,63,0.00,,SKC,0.00,VWS V12.07,2013-09-25 20:40:00,
2013-09-25 15:46:00,78.6,64.5,29.84,SSE,150,4.0,8.0,62,0.00,,SKC,0.00,VWS V12.07,2013-09-25 20:46:00,
2013-09-25 15:52:00,79.0,64.9,29.85,SE,125,2.0,8.0,62,0.00,,SKC,0.00,VWS V12.07,2013-09-25 20:52:00,
2013-09-25 15:58:00,78.5,64.9,29.85,SSE,156,1.0,8.0,63,0.00,,SKC,0.00,VWS V12.07,2013-09-25 20:58:00,
2013-09-25 16:04:00,78.1,64.9,29.85,ESE,114,1.0,6.0,64,0.00,,SKC,0.00,VWS V12.07,2013-09-25 21:04:00,
2013-09-25 16:10:00,78.5,65.3,29.84,ESE,110,3.0,6.0,64,0.00,,SKC,0.00,VWS V12.07,2013-09-25 21:10:00,
2013-09-25 16:16:00,79.0,64.9,29.84,ESE,105,5.0,7.0,62,0.00,,SKC,0.00,VWS V12.07,2013-09-25 21:16:00,
2013-09-25 16:22:00,79.5,64.9,29.84,ESE,108,2.0,9.0,61,0.00,,SKC,0.00,VWS V12.07,2013-09-25 21:22:00,
2013-09-25 16:28:00,80.0,65.4,29.84,SE,144,0.0,9.0,61,0.00,,SKC,0.00,VWS V12.07,2013-09-25 21:28:00,
2013-09-25 16:34:00,80.4,64.8,29.84,SE,128,3.0,6.0,59,0.00,,SKC,0.00,VWS V12.07,2013-09-25 21:34:00,
2013-09-25 16:40:00,80.1,64.5,29.84,South,177,1.0,9.0,59,0.00,,SKC,0.00,VWS V12.07,2013-09-25 21:40:00,
2013-09-25 16:46:00,80.0,64.4,29.84,ESE,120,4.0,9.0,59,0.00,,SKC,0.00,VWS V12.07,2013-09-25 21:46:00,
2013-09-25 16:52:00,79.8,64.2,29.85,SSE,148,0.0,9.0,59,0.00,,SKC,0.00,VWS V12.07,2013-09-25 21:52:00,
2013-09-25 16:58:00,79.9,64.3,29.85,SE,125,2.0,9.0,59,0.00,,SKC,0.00,VWS V12.07,2013-09-25 21:58:00,
2013-09-25 17:04:00,80.4,64.8,29.85,SE,129,0.0,3.0,59,0.00,,SKC,0.00,VWS V12.07,2013-09-25 22:04:00,
2013-09-25 17:10:00,80.4,63.8,29.85,SE,135,1.0,7.0,57,0.00,,SKC,0.00,VWS V12.07,2013-09-25 22:10:00,
2013-09-25 17:16:00,80.2,64.1,29.84,SE,143,1.0,7.0,58,0.00,,SKC,0.00,VWS V12.07,2013-09-25 22:16:00,
2013-09-25 17:22:00,80.0,64.4,29.85,SE,132,2.0,7.0,59,0.00,,SKC,0.00,VWS V12.07,2013-09-25 22:22:00,
2013-09-25 17:28:00,79.9,64.8,29.85,South,190,1.0,7.0,60,0.00,,SKC,0.00,VWS V12.07,2013-09-25 22:28:00,
2013-09-25 17:34:00,79.8,64.7,29.85,ESE,114,0.0,4.0,60,0.00,,SKC,0.00,VWS V12.07,2013-09-25 22:34:00,
2013-09-25 17:40:00,79.8,64.7,29.85,ESE,115,1.0,4.0,60,0.00,,SKC,0.00,VWS V12.07,2013-09-25 22:40:00,
2013-09-25 17:46:00,79.9,64.3,29.85,ESE,112,2.0,4.0,59,0.00,,SKC,0.00,VWS V12.07,2013-09-25 22:46:00,
2013-09-25 17:52:00,79.8,64.7,29.85,ESE,118,1.0,4.0,60,0.00,,SKC,0.00,VWS V12.07,2013-09-25 22:52:00,
2013-09-25 17:58:00,79.7,64.6,29.85,SE,130,2.0,4.0,60,0.00,,SKC,0.00,VWS V12.07,2013-09-25 22:58:00,
2013-09-25 18:04:00,79.3,64.7,29.85,ESE,105,2.0,3.0,61,0.00,,SKC,0.00,VWS V12.07,2013-09-25 23:04:00,
2013-09-25 18:10:00,78.8,64.7,29.85,ESE,120,0.0,3.0,62,0.00,,SKC,0.00,VWS V12.07,2013-09-25 23:10:00,
2013-09-25 18:16:00,78.5,64.4,29.84,SE,134,0.0,3.0,62,0.00,,SKC,0.00,VWS V12.07,2013-09-25 23:16:00,
2013-09-25 18:22:00,78.1,64.5,29.85,ESE,120,0.0,3.0,63,0.00,,SKC,0.00,VWS V12.07,2013-09-25 23:22:00,
2013-09-25 18:28:00,77.6,64.5,29.85,ESE,123,0.0,3.0,64,0.00,,SKC,0.00,VWS V12.07,2013-09-25 23:28:00,
2013-09-25 18:34:00,77.1,64.4,29.85,ESE,123,0.0,0.0,65,0.00,,SKC,0.00,VWS V12.07,2013-09-25 23:34:00,
2013-09-25 18:40:00,76.4,64.2,29.84,ESE,122,0.0,0.0,66,0.00,,SKC,0.00,VWS V12.07,2013-09-25 23:40:00,
2013-09-25 18:46:00,75.6,64.3,29.85,ESE,122,0.0,0.0,68,0.00,,SKC,0.00,VWS V12.07,2013-09-25 23:46:00,
2013-09-25 18:52:00,74.7,63.9,29.85,ESE,122,0.0,0.0,69,0.00,,SKC,0.00,VWS V12.07,2013-09-25 23:52:00,
2013-09-25 18:58:00,73.9,63.5,29.85,ESE,122,0.0,0.0,70,0.00,,SKC,0.00,VWS V12.07,2013-09-25 23:58:00,
2013-09-25 19:04:00,72.9,63.3,29.85,ESE,122,0.0,0.0,72,0.00,,SKC,0.00,VWS V12.07,2013-09-26 00:04:00,
2013-09-25 19:10:00,72.2,63.1,29.85,ESE,123,0.0,0.0,73,0.00,,SKC,0.00,VWS V12.07,2013-09-26 00:10:00,
2013-09-25 19:16:00,71.4,63.5,29.85,ESE,122,0.0,0.0,76,0.00,,SKC,0.00,VWS V12.07,2013-09-26 00:16:00,
2013-09-25 19:22:00,71.1,63.5,29.85,ESE,122,0.0,0.0,77,0.00,,SKC,0.00,VWS V12.07,2013-09-26 00:22:00,
2013-09-25 19:28:00,70.9,63.7,29.85,ESE,122,0.0,0.0,78,0.00,,SKC,0.00,VWS V12.07,2013-09-26 00:28:00,
2013-09-25 19:34:00,70.5,63.3,29.85,ESE,123,0.0,0.0,78,0.00,,SKC,0.00,VWS V12.07,2013-09-26 00:34:00,
2013-09-25 19:40:00,70.2,63.4,29.85,ESE,122,0.0,0.0,79,0.00,,SKC,0.00,VWS V12.07,2013-09-26 00:40:00,
2013-09-25 19:46:00,69.8,63.0,29.86,ESE,122,0.0,0.0,79,0.00,,SKC,0.00,VWS V12.07,2013-09-26 00:46:00,
2013-09-25 19:52:00,69.3,62.9,29.86,ESE,123,0.0,0.0,80,0.00,,SKC,0.00,VWS V12.07,2013-09-26 00:52:00,
2013-09-25 19:58:00,68.8,62.7,29.86,ESE,122,0.0,0.0,81,0.00,,SKC,0.00,VWS V12.07,2013-09-26 00:58:00,
2013-09-25 20:04:00,68.3,62.6,29.86,ESE,122,0.0,0.0,82,0.00,,SKC,0.00,VWS V12.07,2013-09-26 01:04:00,
2013-09-25 20:10:00,67.8,62.5,29.86,ESE,122,0.0,0.0,83,0.00,,SKC,0.00,VWS V12.07,2013-09-26 01:10:00,
2013-09-25 20:16:00,67.3,62.3,29.86,ESE,122,0.0,0.0,84,0.00,,SKC,0.00,VWS V12.07,2013-09-26 01:16:00,
2013-09-25 20:22:00,66.9,61.9,29.86,ESE,122,0.0,0.0,84,0.00,,SKC,0.00,VWS V12.07,2013-09-26 01:22:00,
2013-09-25 20:28:00,66.6,62.3,29.87,ESE,122,0.0,0.0,86,0.00,,SKC,0.00,VWS V12.07,2013-09-26 01:28:00,
2013-09-25 20:34:00,66.4,62.1,29.87,ESE,122,0.0,0.0,86,0.00,,SKC,0.00,VWS V12.07,2013-09-26 01:34:00,
2013-09-25 20:40:00,66.6,62.3,29.87,ESE,122,0.0,0.0,86,0.00,,SKC,0.00,VWS V12.07,2013-09-26 01:40:00,
2013-09-25 20:46:00,66.6,62.3,29.87,ESE,122,0.0,0.0,86,0.00,,SKC,0.00,VWS V12.07,2013-09-26 01:46:00,
2013-09-25 20:52:00,66.7,62.7,29.87,ESE,122,0.0,0.0,87,0.00,,SKC,0.00,VWS V12.07,2013-09-26 01:52:00,
2013-09-25 20:58:00,66.9,62.6,29.87,ESE,122,0.0,0.0,86,0.00,,SKC,0.00,VWS V12.07,2013-09-26 01:58:00,
2013-09-25 21:04:00,66.6,62.3,29.87,ESE,122,0.0,0.0,86,0.00,,SKC,0.00,VWS V12.07,2013-09-26 02:04:00,
2013-09-25 21:10:00,66.2,61.9,29.87,ESE,122,0.0,0.0,86,0.00,,SKC,0.00,VWS V12.07,2013-09-26 02:10:00,
2013-09-25 21:17:00,65.7,61.4,29.87,ESE,122,0.0,0.0,86,0.00,,SKC,0.00,VWS V12.07,2013-09-26 02:17:00,
2013-09-25 21:23:00,65.2,61.2,29.88,ESE,122,0.0,0.0,87,0.00,,SKC,0.00,VWS V12.07,2013-09-26 02:23:00,
2013-09-25 21:29:00,64.7,61.1,29.88,ESE,122,0.0,0.0,88,0.00,,SKC,0.00,VWS V12.07,2013-09-26 02:29:00,
2013-09-25 21:35:00,64.5,61.2,29.88,ESE,122,0.0,0.0,89,0.00,,SKC,0.00,VWS V12.07,2013-09-26 02:35:00,
2013-09-25 21:41:00,64.7,62.3,29.88,ESE,122,0.0,1.0,92,0.00,,SKC,0.00,VWS V12.07,2013-09-26 02:41:00,
2013-09-25 21:47:00,66.7,63.4,29.88,ENE,68,0.0,1.0,89,0.00,,SKC,0.00,VWS V12.07,2013-09-26 02:47:00,
2013-09-25 21:53:00,67.8,63.5,29.87,ENE,68,0.0,1.0,86,0.00,,SKC,0.00,VWS V12.07,2013-09-26 02:53:00,
2013-09-25 21:59:00,68.6,63.6,29.88,ENE,61,1.0,2.0,84,0.00,,SKC,0.00,VWS V12.07,2013-09-26 02:59:00,
2013-09-25 22:05:00,69.4,64.0,29.88,ESE,110,0.0,2.0,83,0.00,,SKC,0.00,VWS V12.07,2013-09-26 03:05:00,
2013-09-25 22:11:00,69.5,63.8,29.88,East,82,0.0,2.0,82,0.00,,SKC,0.00,VWS V12.07,2013-09-26 03:11:00,
2013-09-25 22:17:00,69.3,63.6,29.88,East,101,0.0,2.0,82,0.00,,SKC,0.00,VWS V12.07,2013-09-26 03:17:00,
2013-09-25 22:27:00,69.4,63.3,29.88,ESE,102,0.0,2.0,81,0.00,,SKC,0.00,VWS V12.07,2013-09-26 03:27:00,
2013-09-25 22:33:00,68.9,63.2,29.89,ESE,102,0.0,0.0,82,0.00,,SKC,0.00,VWS V12.07,2013-09-26 03:33:00,
2013-09-25 22:39:00,68.2,62.5,29.89,ESE,102,0.0,0.0,82,0.00,,SKC,0.00,VWS V12.07,2013-09-26 03:39:00,
2013-09-25 22:45:00,67.3,62.0,29.89,ESE,102,0.0,0.0,83,0.00,,SKC,0.00,VWS V12.07,2013-09-26 03:45:00,
2013-09-25 22:51:00,67.7,62.4,29.89,East,101,0.0,0.0,83,0.00,,SKC,0.00,VWS V12.07,2013-09-26 03:51:00,
2013-09-25 22:57:00,68.0,62.3,29.89,ESE,102,0.0,0.0,82,0.00,,SKC,0.00,VWS V12.07,2013-09-26 03:57:00,
2013-09-25 23:03:00,68.0,62.3,29.89,East,100,0.0,0.0,82,0.00,,SKC,0.00,VWS V12.07,2013-09-26 04:03:00,
2013-09-25 23:06:00,68.1,62.4,29.89,East,101,0.0,0.0,82,0.00,,SKC,0.00,VWS V12.07,2013-09-26 04:06:00,
2013-09-25 23:12:00,68.3,62.2,29.89,East,100,0.0,0.0,81,0.00,,SKC,0.00,VWS V12.07,2013-09-26 04:12:00,
2013-09-25 23:18:00,68.3,62.2,29.89,East,100,0.0,0.0,81,0.00,,SKC,0.00,VWS V12.07,2013-09-26 04:18:00,
2013-09-25 23:24:00,67.8,62.1,29.89,East,100,0.0,0.0,82,0.00,,SKC,0.00,VWS V12.07,2013-09-26 04:24:00,
2013-09-25 23:30:00,67.2,61.9,29.89,East,100,0.0,0.0,83,0.00,,SKC,0.00,VWS V12.07,2013-09-26 04:30:00,
2013-09-25 23:36:00,66.4,61.1,29.89,East,100,0.0,0.0,83,0.00,,SKC,0.00,VWS V12.07,2013-09-26 04:36:00,
2013-09-25 23:42:00,66.4,61.4,29.88,East,91,0.0,0.0,84,0.00,,SKC,0.00,VWS V12.07,2013-09-26 04:42:00,
2013-09-25 23:48:00,66.9,61.6,29.88,East,80,0.0,0.0,83,0.00,,SKC,0.00,VWS V12.07,2013-09-26 04:48:00,
2013-09-25 23:54:00,66.8,61.5,29.89,East,82,0.0,0.0,83,0.00,,SKC,0.00,VWS V12.07,2013-09-26 04:54:00,